Location: Unspecified
(40.7945°N, 0.0000°E)
Time: 14:55:19
(UTC+00:00)

S-56A Canister/Altair - All Passes

Search period start: 25 January 2021 00:00
Search period end: 04 February 2021 00:00
Orbit: 633 x 2499 km, 38.9° (Epoch: 24 January)

Date Brightness Start Highest point End Pass type
(mag) Time Alt. Az. Time Alt. Az. Time Alt. Az.
25 Jan - 00:29:08 10° S 00:32:19 16° SSE 00:35:13 10° ESE night (unlit)
25 Jan - 02:31:02 10° WSW 02:35:28 50° SSE 02:39:52 10° E night (unlit)
25 Jan - 04:34:25 10° W 04:38:51 70° S 04:44:11 10° E visible
25 Jan - 06:37:45 10° W 06:42:23 39° SSW 06:48:38 10° SE visible
25 Jan - 08:42:55 10° WSW 08:46:11 14° SSW 08:50:01 10° S daylight
25 Jan - 23:56:47 10° S 23:59:47 15° SSE 00:02:26 10° ESE night (unlit)
26 Jan - 01:58:25 10° SW 02:02:59 46° SSE 02:07:15 10° E night (unlit)
26 Jan - 04:01:56 10° W 04:06:20 71° S 04:11:20 10° E visible
26 Jan - 06:05:20 10° W 06:09:48 41° SSW 06:15:39 10° SE visible
26 Jan - 08:10:07 10° WSW 08:13:28 15° SSW 08:17:27 10° S daylight
26 Jan - 23:24:29 10° S 23:27:12 13° SSE 23:29:38 10° ESE night (unlit)
27 Jan - 01:25:45 10° SW 01:30:30 42° SSE 01:34:42 10° E night (unlit)
27 Jan - 03:29:24 10° W 03:33:50 71° S 03:38:34 10° E visible
27 Jan - 05:32:53 10° W 05:37:15 44° SSW 05:42:44 10° SE visible
27 Jan - 07:37:25 10° WSW 07:40:48 16° SSW 07:44:51 10° S daylight
27 Jan - 22:52:14 10° S 22:54:35 12° SSE 22:56:43 10° SE night (unlit)
28 Jan - 00:53:01 10° SW 00:58:00 38° SSE 01:02:10 10° E night (unlit)
28 Jan - 02:56:47 10° W 03:01:21 70° S 03:05:53 10° E visible
28 Jan - 05:00:26 10° W 05:04:44 48° SSW 05:09:53 10° ESE visible
28 Jan - 07:04:45 10° WSW 07:08:10 18° SSW 07:12:14 10° SSE daylight
28 Jan - 22:20:06 10° SSE 22:21:57 11° SSE 22:23:38 10° SE night (unlit)
29 Jan - 00:20:14 10° SW 00:25:28 35° SSE 00:29:42 10° E night (unlit)
29 Jan - 02:24:06 10° WSW 02:28:51 69° S 02:33:17 10° E night (unlit)
29 Jan - 04:27:56 10° W 04:32:14 51° SSW 04:37:07 10° ESE visible
29 Jan - 06:32:08 10° WSW 06:35:34 19° SSW 06:39:39 10° SSE visible
29 Jan - 21:48:25 10° SSE 21:49:16 10° SSE 21:50:05 10° SE night (unlit)
29 Jan - 23:47:23 10° SW 23:52:56 33° SSE 23:57:14 10° E night (unlit)
30 Jan - 01:51:20 10° WSW 01:56:22 67° S 02:00:45 10° E night (unlit)
30 Jan - 03:55:23 10° W 03:59:45 55° SSW 04:04:24 10° ESE visible
30 Jan - 05:59:31 10° WSW 06:03:00 21° SSW 06:07:04 10° SSE visible
30 Jan - 23:14:29 10° SW 23:20:21 31° SSE 23:24:47 10° E night (unlit)
31 Jan - 01:18:29 10° WSW 01:23:51 65° S 01:28:16 10° E night (unlit)
31 Jan - 03:22:46 10° W 03:27:16 60° SSW 03:31:46 10° ESE visible
31 Jan - 05:26:55 10° W 05:30:28 23° SSW 05:34:31 10° SSE visible
31 Jan - 22:41:32 10° SSW 22:47:43 29° SSE 22:52:19 10° E night (unlit)
01 Feb - 00:45:33 10° WSW 00:51:19 62° S 00:55:50 10° E night (unlit)
01 Feb - 02:50:05 10° W 02:54:47 64° S 02:59:12 10° ESE visible
01 Feb - 04:54:17 10° W 04:57:58 25° SSW 05:02:00 10° SSE visible
01 Feb - 22:08:33 10° SSW 22:15:02 28° SSE 22:19:51 10° E night (unlit)
02 Feb - 00:12:31 10° WSW 00:18:46 60° SSE 00:23:26 10° E night (unlit)
02 Feb - 02:17:18 10° W 02:22:17 68° S 02:26:41 10° ESE night (unlit)
02 Feb - 04:21:39 10° W 04:25:28 28° SSW 04:29:31 10° SE visible
02 Feb - 21:35:33 10° SSW 21:42:19 26° SSE 21:47:21 10° E visible
02 Feb - 23:39:24 10° WSW 23:46:11 57° SSE 23:51:03 10° E night (unlit)
03 Feb - 01:44:26 10° W 01:49:47 71° S 01:54:13 10° ESE night (unlit)
03 Feb - 03:48:57 10° W 03:53:01 32° SSW 03:57:04 10° SE visible
03 Feb - 21:02:31 10° SSW 21:09:34 25° SSE 21:14:49 10° E visible
03 Feb - 23:06:13 10° WSW 23:13:33 54° SSE 23:18:40 10° E night (unlit)
